Lapse_Rate
2.5 2.7 2.4 2.9 2.9 2.7 2.5 3.0 3.6 3.6 2.7 0.6 0.3 -0.8 0.4 1.2 2.1 2.1 2.1 2.8 3.9 4.5 4.9 4.5 4.2 4.0 3.8 3.4 3.5 3.8 3.8 3.7 4.4 4.9 5.5 6.3 7.4 7.6
2.5 2.6 2.6 2.5 2.3 2.2 2.1 2.4 2.4 2.6 3.0 0.7 -0.0 -0.4 0.1 1.0 2.1 1.9 2.1 2.8 3.8 4.6 4.9 4.3 4.2 3.9 3.6 3.3 3.4 3.6 3.6 4.1 4.5 4.6 4.8 5.3 5.9 5.6
3.0 2.7 2.6 2.2 2.3 1.2 1.3 1.4 1.5 1.4 2.1 0.3 -0.2 -0.3 0.0 0.1 0.4 1.6 2.7 2.7 3.0 4.8 5.0 4.8 4.1 3.7 3.2 3.5 3.4 3.5 3.7 4.0 3.7 3.9 4.3 4.9 5.5 4.7
3.3 3.1 3.1 2.1 1.8 1.5 1.8 1.2 0.8 1.0 1.9 2.0 0.1 0.1 1.1 1.2 2.0 2.3 2.9 3.4 3.4 4.2 4.3 4.4 4.2 3.6 3.8 3.5 3.4 3.6 3.7 3.4 3.3 3.6 4.1 5.2 4.9 4.2
2.8 2.6 2.9 2.1 1.9 1.2 1.4 0.9 0.5 0.7 0.9 0.9 0.6 0.5 1.0 1.1 1.8 2.4 2.5 2.8 3.0 3.3 3.8 4.0 4.5 3.6 3.7 3.5 3.7 3.6 3.4 3.1 3.5 3.7 4.0 3.6 2.9 3.8
1.7 1.6 1.8 1.9 2.2 2.4 2.3 1.3 1.4 0.8 0.1 0.9 0.9 1.2 1.0 0.7 1.6 2.7 2.4 2.2 2.4 3.2 3.7 3.5 3.6 3.4 3.6 4.0 3.4 3.0 2.8 3.4 3.6 2.7 3.4 3.4 2.8 3.0
1.8 1.7 1.6 1.3 1.4 1.3 3.1 1.4 2.0 1.7 0.5 0.5 0.6 1.9 0.8 0.1 0.9 1.5 2.7 2.4 1.8 2.0 2.0 1.8 1.5 1.1 1.6 2.2 2.2 2.4 3.4 3.5 2.9 1.9 2.4 3.2 3.1 2.8
1.7 1.7 1.5 1.3 2.1 3.3 2.9 2.3 2.0 2.1 1.8 0.7 -0.7 1.6 1.2 0.2 0.9 1.4 2.0 2.3 3.0 0.8 1.1 1.1 0.1 -0.3 0.1 1.2 1.9 3.1 3.1 3.4 2.5 1.4 1.5 2.3 2.6 2.6
2.6 2.3 2.0 1.6 2.2 2.0 3.5 3.0 2.6 2.3 1.3 2.2 0.1 1.2 1.3 1.1 2.6 2.2 1.9 2.1 2.5 0.4 0.5 0.8 -1.1 -0.7 -0.5 0.7 2.1 3.2 3.0 3.1 1.9 1.7 1.3 1.8 2.2 2.6
2.5 2.9 3.1 2.2 1.5 1.6 1.6 0.7 0.7 1.3 1.5 1.1 1.6 1.9 2.4 2.2 3.1 2.7 1.9 1.9 0.8 0.6 0.6 0.9 -1.6 -1.0 -1.7 -0.2 1.2 2.6 2.5 2.1 2.4 1.7 1.5 1.8 1.6 1.4
2.8 2.8 3.1 2.9 3.1 3.5 2.1 0.8 0.4 0.4 1.7 2.1 2.0 2.7 3.4 3.6 2.3 1.2 1.6 2.6 2.3 0.9 -0.4 1.0 -1.5 -1.9 -2.1 -1.7 -0.1 1.9 1.8 1.7 1.9 1.5 1.4 1.4 1.4 0.9
3.5 3.2 4.0 3.3 3.7 4.7 2.7 2.0 1.0 -0.0 -0.1 0.4 1.0 2.4 3.5 3.6 3.9 2.3 1.4 3.1 -0.0 0.4 -0.4 0.1 -3.2 -2.7 -2.7 -2.7 -2.1 -0.7 -0.5 0.6 1.2 1.4 1.4 1.4 1.4 -0.3
4.0 3.4 3.2 4.7 4.6 5.0 4.5 2.5 2.0 1.0 1.7 -0.1 -0.1 -0.0 0.1 0.4 0.2 0.2 0.7 1.6 0.2 -0.9 -1.1 -2.4 -6.9 -4.4 -4.4 -3.2 -3.9 -3.8 -2.0 -1.2 -0.9 -0.6 0.0 1.1 1.8 1.1
4.7 4.7 4.3 4.3 4.9 5.3 5.5 3.9 4.3 3.8 1.0 0.9 0.6 0.2 -0.4 -0.8 -2.0 -1.6 0.1 -0.3 0.2 -0.4 0.5 -2.3 -4.3 -4.7 -6.3 -5.6 -3.1 -4.2 -4.6 -2.6 -2.0 -2.2 -1.2 -0.1 0.3 0.7
6.1 5.5 4.7 4.4 5.0 5.5 5.8 5.8 5.2 2.7 1.9 2.1 1.9 1.3 -0.3 -1.1 -1.3 -1.5 -1.7 -1.7 -1.8 -1.2 -1.0 -2.5 -5.1 -8.2 -6.7 -6.3 -4.3 -4.3 -3.2 -2.8 -3.4 -4.5 -2.4 -2.2 -2.4 -1.1
6.1 5.7 5.3 4.9 5.3 5.6 5.2 5.3 3.7 2.2 1.5 1.7 1.6 1.7 0.7 0.1 0.2 -0.8 -1.0 -2.2 -1.2 -1.2 -2.5 -2.9 -3.0 -4.3 -5.9 -5.2 -5.1 -4.4 -3.8 -2.7 -3.8 -3.8 -2.9 -2.6 -1.2 -0.7
6.0 4.2 4.4 4.1 3.9 4.0 3.7 3.9 3.7 1.8 2.0 1.6 1.4 1.4 2.7 1.7 1.0 -1.0 -1.7 -2.6 -2.9 -2.0 -2.3 -2.2 -2.0 -1.4 -3.3 -4.0 -4.1 -3.2 -2.6 -3.1 -4.2 -4.0 -3.4 -3.5 -2.4 -1.5
6.2 5.7 5.3 4.9 4.7 4.3 3.8 3.2 2.9 2.6 2.6 2.1 2.0 2.0 3.4 2.3 1.5 -0.7 -1.2 -1.6 -2.2 -1.6 -2.1 -2.9 -3.7 -2.9 -2.7 -1.5 -1.4 -2.3 -3.0 -2.9 -4.5 -3.7 -3.4 -4.6 -3.7 -1.7
6.0 6.0 5.3 4.9 4.8 4.5 4.0 3.4 3.2 2.9 2.5 2.4 2.5 2.4 2.9 2.6 3.4 1.9 0.6 -0.2 -0.2 -0.6 -1.4 -3.5 -3.9 -3.6 -2.1 0.0 -1.0 -0.2 -1.7 -3.1 -3.6 -2.7 -2.7 -2.6 -3.1 -1.7
5.7 5.7 5.2 5.3 4.5 4.4 4.0 3.6 3.3 3.1 2.9 3.0 3.0 3.0 3.8 3.0 3.3 2.8 2.3 2.2 0.9 -0.2 -1.1 -2.5 -3.0 -3.4 -1.2 0.2 0.1 -0.8 0.2 -1.5 -1.3 -2.0 -2.7 -1.9 -0.7 1.4
5.8 5.8 5.6 4.9 4.1 3.6 3.7 3.8 4.0 3.7 3.4 3.4 3.4 3.7 4.2 3.9 3.4 2.8 2.2 3.4 2.8 1.6 1.2 0.5 0.2 1.6 -2.4 -1.0 0.5 -0.8 -1.1 1.3 0.6 -1.0 -4.0 -2.7 -1.1 -0.4
5.4 5.7 5.3 4.9 4.6 3.9 3.6 3.6 3.9 4.2 3.7 3.9 3.8 4.1 4.1 3.7 3.5 2.9 2.6 3.3 3.0 1.6 0.7 -0.9 -0.2 -0.6 -0.6 0.9 0.2 -1.1 0.1 0.7 2.2 2.4 2.2 2.0 -0.8 -1.4
5.4 5.2 4.9 4.8 4.5 4.1 3.8 3.6 3.6 3.7 3.8 3.8 4.0 3.7 4.5 3.6 3.9 3.5 3.0 3.3 3.0 1.8 1.6 1.0 1.0 0.6 0.9 1.5 1.4 0.7 1.1 1.0 1.5 1.8 1.9 3.6 3.8 3.5
Wind_Speed
7 6 4 3 4 4 4 3 4 4 5 4 3 2 5 5 5 5 4 2 2 3 2 2 2 3 4 6 9 11 12 14 13 15 17 19 21 21
5 6 5 3 4 4 4 4 3 4 3 2 2 3 7 6 6 4 3 3 1 2 2 2 1 2 4 6 10 11 13 15 16 16 18 19 22 23
7 8 9 7 5 4 4 3 3 3 4 1 1 2 3 5 5 3 2 3 3 2 3 3 2 0 3 6 7 11 12 14 15 17 18 19 23 26
10 10 10 7 7 5 4 6 4 3 3 4 2 2 3 3 3 3 3 3 4 3 3 2 3 0 4 6 7 11 12 13 14 15 19 20 24 29
6 8 9 9 7 6 6 5 4 3 3 3 3 2 1 2 2 2 3 3 5 5 4 3 3 2 4 6 7 10 11 12 13 14 17 20 22 27
6 7 6 7 5 4 5 5 3 4 3 3 3 2 2 2 2 2 2 2 2 5 6 4 3 2 4 3 6 8 10 11 11 13 17 20 22 23
5 5 6 7 10 11 6 6 6 4 3 3 3 2 3 2 3 3 3 2 3 3 3 1 2 1 3 4 5 7 7 8 11 12 16 19 21 23
7 7 5 8 10 13 13 14 14 10 9 4 4 4 5 4 4 3 3 3 3 4 3 2 3 2 2 3 4 4 5 8 10 12 14 18 19 20
6 5 5 4 7 5 11 12 15 16 12 9 6 8 6 6 6 5 4 4 3 2 3 2 2 2 3 3 4 3 4 8 10 11 13 15 18 19
6 6 7 6 7 7 6 6 5 5 6 5 7 6 5 7 8 6 6 4 3 2 1 2 2 3 1 4 5 3 5 5 8 10 12 13 15 17
6 6 7 6 10 14 7 7 5 4 6 8 8 10 10 13 10 6 4 4 2 3 4 3 2 1 1 1 5 4 1 4 7 10 12 12 13 13
6 6 13 10 13 17 9 8 8 7 5 4 3 4 7 9 18 9 6 6 2 1 4 4 2 2 2 1 2 3 3 3 5 7 10 12 11 11
6 5 6 16 16 18 18 9 9 7 10 5 4 3 1 1 3 4 6 4 3 2 5 3 2 1 2 2 1 1 2 1 3 5 6 8 9 8
9 7 7 15 18 18 16 16 15 10 5 4 3 3 3 2 1 2 4 5 3 3 13 7 3 3 3 0 2 1 1 1 2 2 4 5 6 7
8 11 13 16 18 16 19 18 17 6 6 5 5 4 3 3 5 4 7 9 8 7 9 4 4 3 2 2 2 2 2 0 2 1 3 2 2 5
12 10 11 13 14 11 11 11 6 7 7 7 5 2 3 4 3 2 2 2 2 2 3 4 8 5 2 1 2 2 1 2 1 0 1 2 1 1
12 4 4 4 6 5 4 6 6 6 7 6 5 5 4 4 4 2 2 2 2 3 2 1 5 4 2 5 2 2 3 1 1 2 2 2 2 3
11 6 6 6 7 7 7 6 6 10 8 7 6 7 6 6 5 2 2 2 2 3 3 2 2 1 2 3 5 3 2 2 1 2 1 2 2 2
9 7 6 7 7 7 7 8 8 8 8 7 6 6 6 7 9 5 3 2 2 3 2 2 2 3 2 3 1 9 3 2 3 1 2 1 2 2
7 5 7 8 7 7 7 7 6 7 8 8 7 7 7 8 7 7 7 7 4 3 2 2 2 3 4 4 3 1 8 3 2 2 1 1 4 7
8 7 6 6 6 7 7 7 8 8 8 8 8 8 8 8 7 7 7 12 10 4 6 6 6 8 2 2 2 1 1 11 6 3 3 2 1 2
8 7 6 6 7 8 8 8 8 8 8 8 8 8 8 8 8 8 8 8 7 6 3 3 4 4 2 2 3 3 1 1 10 7 7 6 4 2
9 8 7 6 7 7 7 7 8 8 8 8 8 8 8 8 8 8 8 7 6 5 3 4 4 2 3 3 5 3 3 2 2 2 2 11 11 9
Wind_Direction
201 212 194 225 224 210 174 164 161 192 221 209 163 179 163 153 165 151 151 140 144 120 87 67 60 39 13 355 352 342 335 325 316 309 310 311 307 308
198 207 219 217 208 206 185 180 177 166 200 140 196 158 175 167 163 149 176 185 166 204 176 115 120 41 11 358 355 336 333 322 318 316 316 314 310 315
214 207 215 195 203 189 185 164 177 157 174 173 128 171 167 165 145 142 216 228 193 196 201 207 171 149 9 351 346 340 330 326 325 319 317 321 320 324
224 221 221 201 192 179 196 191 170 163 142 170 153 148 180 200 165 149 200 202 228 196 209 222 227 0 340 336 338 329 344 329 332 321 322 329 337 335
233 229 231 209 194 183 189 180 160 158 166 153 157 145 135 153 148 170 176 204 230 223 229 252 219 243 313 324 332 337 343 342 336 332 336 338 350 345
208 206 201 203 205 207 187 166 180 168 152 158 164 152 172 153 141 155 208 203 222 226 236 220 215 294 303 340 338 340 345 336 328 336 346 351 357 354
229 223 217 204 190 176 190 170 175 190 153 172 159 176 185 167 169 164 198 171 221 197 205 212 186 328 302 322 335 339 333 343 330 342 353 360 5 6
225 216 213 208 220 207 199 186 181 186 195 175 165 211 195 178 156 168 146 155 228 182 171 210 181 196 246 284 321 324 336 333 347 357 355 3 15 13
235 219 212 200 199 190 205 197 199 200 191 191 187 196 189 174 151 169 175 162 190 175 128 214 175 215 209 258 299 300 324 337 355 2 6 12 16 23
235 231 222 205 188 180 184 186 200 208 209 192 206 199 199 167 176 173 177 134 91 97 165 189 170 199 150 243 294 256 297 359 0 15 10 13 18 23
248 229 221 221 211 200 192 198 207 227 230 215 201 207 197 176 161 132 143 153 182 189 220 134 213 123 125 239 237 246 292 10 6 24 21 19 19 24
240 228 226 218 207 209 199 198 206 207 176 172 180 209 211 202 182 185 156 176 136 80 208 153 140 126 345 249 234 243 306 334 12 26 23 20 21 35
246 228 221 221 219 212 201 197 205 160 193 176 167 154 128 140 132 163 166 146 149 204 184 126 126 133 110 241 279 234 201 304 14 7 6 13 24 39
246 243 232 215 214 212 210 199 203 183 156 162 160 178 168 193 136 127 169 157 123 164 167 149 136 153 143 261 185 323 29 54 70 22 347 352 30 30
267 246 228 216 217 217 213 205 199 170 166 177 185 181 174 142 121 104 84 96 82 87 141 144 124 155 143 155 178 181 120 30 73 66 332 0 13 32
288 257 226 212 211 212 206 204 181 172 182 188 176 123 114 140 154 144 136 135 111 118 69 146 158 145 139 167 132 138 163 136 112 134 292 325 339 33
283 270 213 203 200 194 187 195 184 173 180 170 161 148 168 160 175 163 127 129 125 156 167 119 127 132 131 148 125 161 149 157 192 162 79 337 307 287
273 259 239 218 215 205 198 191 187 185 184 170 173 161 170 186 175 144 118 126 140 174 156 162 134 71 3 262 196 135 139 154 170 154 103 96 314 323
274 254 233 219 216 211 207 200 200 192 171 170 174 166 168 188 182 177 160 140 163 156 161 154 146 128 116 190 271 198 138 155 135 99 168 166 191 273
281 257 235 232 212 213 205 198 192 176 176 172 169 173 181 189 176 181 183 195 172 155 158 156 154 181 156 183 155 142 197 133 147 157 200 249 243 276
299 266 241 221 211 204 204 198 193 186 177 171 170 176 183 183 183 180 182 194 188 174 192 194 198 173 139 103 74 31 84 205 181 158 165 112 108 343
301 283 253 228 212 207 202 198 193 189 181 178 174 176 179 178 181 178 181 188 194 192 176 130 139 132 129 142 166 151 123 146 212 210 202 185 161 203
304 292 268 236 219 209 200 194 193 190 188 180 175 170 174 177 181 181 178 187 181 165 153 142 153 140 162 178 168 161 166 158 156 172 236 229 235 241